Location: Echte
(51.7841°N, 10.0629°E)
Time: 07:21:32
(UTC+00:00)

Daily predictions for brighter satellites

Satellite Brightness Start Highest point End
(mag) Time Altitude Azimuth Time Altitude Azimuth Time Altitude Azimuth
CORIOLIS 4.1 16:27:27 10° SSE 16:32:46 74° ENE 16:38:09 10° NNW
FengYun 1-2 T 4.3 16:28:22 10° SSE 16:33:55 61° ENE 16:39:29 10° N
Cosmos 1110 Rocket 4.3 16:29:54 10° S 16:34:53 46° ESE 16:39:51 10° NE
NOSS 2-2 (C) 4.4 16:31:05 10° NW 16:36:12 73° NE 16:43:22 10° SE
Timation 2 Rocket 4.1 16:32:09 10° NNW 16:38:43 77° NE 16:45:31 10° SE
Lacrosse 5 2.4 16:33:58 10° W 16:38:57 54° NNW 16:43:56 10° ENE
Cosmos 1825 Rocket 3.5 16:35:11 10° N 16:39:39 70° ENE 16:44:04 10° SSE
ADEOS Rocket 3.3 16:36:12 10° NNE 16:42:32 89° ESE 16:49:35 10° SSW
Cosmos 292 Rocket 4.3 16:39:47 10° S 16:44:10 37° ESE 16:48:38 10° NE
Envisat 3.8 16:39:12 10° S 16:44:12 58° W 16:49:15 10° NNW
Meteor 2-21 Rocket 4.5 16:38:12 10° N 16:44:24 67° ENE 16:50:29 10° SSE
Aureole 3 4.2 16:42:46 10° SE 16:44:51 17° E 16:46:54 10° NE
FALCON 9 DEB 3.2 16:42:09 10° W 16:45:36 70° N 16:48:52 11° E
Okean O Rocket 1.8 16:41:53 10° S 16:46:15 76° WSW 16:50:37 10° NNW
ERBS 3.3 16:44:53 10° W 16:48:01 36° N 16:51:09 10° ENE
YAOGAN 1 3.6 16:44:46 10° ESE 16:48:16 25° ENE 16:51:47 10° N
USA 281 3.6 16:42:33 10° SSE 16:49:06 70° WSW 16:55:42 10° NNW
Landsat 5 4.1 16:47:28 10° N 16:51:16 56° WNW 16:55:07 10° SSW
FALCON 9 DEB 4.4 16:50:22 10° SSW 16:52:58 23° SE 16:55:10 12° E
Cosmos 2219 3.2 16:48:17 10° NNW 16:54:03 67° NE 16:59:47 10° SE
Feng Yun 1-1 Rocket 4.4 16:48:45 10° SSE 16:54:37 70° ENE 17:00:32 10° NNW
CZ-2C R/B 3.9 16:49:30 10° SE 16:54:37 34° ENE 16:59:36 10° N
SMAP 3.6 16:50:33 10° S 16:55:10 64° WSW 16:59:49 10° NNW
Cosmos 1455 4.2 16:55:49 10° ESE 16:56:10 11° E 16:56:10 11° E
Cosmos 1726 Rocket 3.7 16:53:59 10° S 16:58:12 51° E 17:02:28 10° NNE
Cosmos 1943 Rocket 4.1 16:53:50 10° W 16:58:17 24° NW 17:02:45 10° NNE
Cosmos 1758 Rocket 4.2 16:54:02 10° NNW 16:58:25 62° W 17:02:43 10° S
USA 307 2.9 16:56:35 10° WNW 17:00:54 78° NNE 17:04:41 13° E
Cosmos 2082 4.2 16:57:12 10° NNW 17:02:37 41° NE 17:08:01 10° ESE
CZ-4B R/B 1.2 17:01:18 10° NNE 17:04:33 69° ESE 17:07:42 10° S
FALCON 9 DEB 4.2 17:02:08 10° SSW 17:04:55 27° SE 17:06:44 16° E
Cosmos 2228 2.9 17:00:59 10° S 17:05:14 78° E 17:09:33 10° NNE
USA 308 2.9 17:01:26 10° WNW 17:05:44 80° NNE 17:09:20 14° ESE
Cosmos 1939 Rocket 2.8 17:02:09 10° SSE 17:06:03 60° ENE 17:09:56 10° N
Cosmos 2278 Rocket 4.5 17:04:38 10° NNW 17:06:29 11° N 17:08:20 10° N
ATLAS 5 CENTAUR R/B 3.2 17:04:38 10° W 17:08:31 29° NNW 17:12:56 10° NE
Cosmos 1452 Rocket 4.5 17:06:12 10° SW 17:11:18 50° WNW 17:16:28 10° NNE
Helios 1A Rocket 3.0 17:09:14 10° SE 17:13:14 53° ENE 17:17:14 10° N
Cosmos 1606 Rocket 3.5 17:09:25 10° S 17:13:47 88° E 17:18:14 10° N
FALCON 9 DEB 3.9 17:13:35 10° SW 17:16:30 33° SSE 17:17:56 22° E
GENESIS II 4.2 17:12:33 10° SW 17:16:36 78° SE 17:20:07 13° NE
ARGOS 4.0 17:13:29 10° ESE 17:18:07 30° ENE 17:22:47 10° N
SKYMED 2 3.7 17:14:24 10° NNE 17:18:39 50° E 17:22:53 10° S
Okean-O 2.7 17:15:23 10° SSE 17:19:43 55° ENE 17:24:04 10° N
Cosmos 1689 Rocket 2.4 17:17:11 10° NNE 17:19:57 40° E 17:22:42 10° S
SL-08 R/B 4.4 17:14:22 10° N 17:20:32 64° ENE 17:26:36 10° SSE
Cosmos 1656 4.1 17:17:39 10° S 17:22:49 41° ESE 17:28:04 10° NE
Cosmos 1745 Rocket 4.2 17:17:34 10° N 17:23:42 51° ENE 17:29:50 10° SSE
Cosmos 1400 Rocket 2.9 17:21:28 10° S 17:25:31 58° E 17:29:32 10° NNE
PSLV R/B 4.1 17:22:52 10° NNE 17:26:58 49° E 17:30:59 10° S
H-2A R/B 2.5 17:22:30 10° SE 17:27:35 43° ENE 17:32:44 10° N
Cosmos 2227 Rocket 2.2 17:22:19 10° NNW 17:28:02 87° ENE 17:33:42 10° SSE
Ariane Rocket 4.3 17:27:38 19° ENE 17:28:32 20° NE 17:32:12 10° N
Cosmos 2058 3.1 17:24:37 10° N 17:28:34 44° ENE 17:32:30 10° SSE
GEOS 3 Rocket 3.7 17:24:32 13° ESE 17:29:13 64° NE 17:34:35 10° NW
Cosmos 1892 2.7 17:26:06 10° N 17:29:58 61° ENE 17:33:48 10° SSE
CZ-4 R/B 1.2 17:26:12 10° SSE 17:30:01 61° ENE 17:33:50 10° N
Cosmos 2263 Rocket 3.3 17:28:42 10° NNW 17:33:30 27° NE 17:35:33 22° ENE
Cosmos 1408 2.8 17:30:38 10° N 17:34:09 44° ENE 17:37:15 13° SSE
BREEZE-M DEB (TANK) 4.4 17:31:26 10° W 17:35:34 87° N 17:46:14 20° E
BREEZE-M R/B 3.8 17:27:26 10° W 17:35:44 64° S 17:37:09 29° ESE
CSL-04 Rocket 3.9 17:30:34 10° SE 17:35:53 50° ENE 17:41:12 10° N
NOSS 3-4 (A) 4.1 17:33:19 10° NW 17:39:48 50° NNE 17:44:11 23° E
NOSS 3-4 (C) 4.1 17:33:25 10° NW 17:39:54 50° NNE 17:44:16 24° E
CZ-4C R/B 3.5 17:34:29 10° NW 17:40:21 36° NNE 17:44:25 21° ENE
Meteor 2-1 Rocket 4.5 17:37:18 10° SSE 17:42:27 42° E 17:47:38 10° NNE
Cosmos 1300 3.5 17:40:11 10° SSW 17:43:55 52° WNW 17:47:41 10° N
Cosmos 2058 Rocket 3.1 17:42:41 10° SSW 17:47:11 84° W 17:51:44 10° N
Cosmos 1697 Rocket 3.2 17:42:23 10° S 17:47:25 35° ESE 17:49:37 26° ENE
SL-4 R/B 1.6 17:44:21 10° W 17:47:55 84° S 17:49:04 43° ESE
Cosmos 1346 Rocket 2.6 17:44:53 10° N 17:48:53 76° ENE 17:52:53 10° SSE
SeaSat 1 2.6 17:46:27 26° ESE 17:48:56 51° NE 17:53:44 10° NNW
CZ-2D R/B 3.6 17:45:14 10° S 17:49:01 65° W 17:52:49 10° NNW
CRYOSAT 2 4.5 17:46:07 10° NNE 17:50:51 49° E 17:55:33 10° SSE
Cosmos 1825 2.4 17:47:28 10° N 17:51:09 46° ENE 17:51:37 43° E
USA 305 3.0 17:47:17 10° WNW 17:51:36 71° SSW 17:53:27 33° SE
NOSS 3-3 (A) 4.4 17:46:49 10° S 17:52:07 36° ESE 17:54:18 28° E
NOSS 3-3 (C) 4.4 17:46:55 10° S 17:52:15 36° ESE 17:54:24 29° E
Cosmos 1709 Rocket 4.2 17:47:16 10° N 17:53:29 50° ENE 17:59:39 10° SSE
USA 215 3.4 17:51:39 27° E 17:55:24 65° NNE 18:01:53 10° WNW
Cosmos 44 3.3 17:51:12 10° SW 17:55:46 75° NW 17:59:04 20° NE
Cosmos 1315 Rocket 3.1 17:52:54 10° SSE 17:56:19 43° ESE 17:56:19 43° ESE
ERS-2 4.1 17:54:45 10° N 17:57:56 29° WNW 18:01:08 10° SW
USA 306 3.1 17:53:43 10° WNW 17:57:58 67° SSW 17:59:35 36° SE
SJ-11-01 4.1 17:54:09 10° SSE 17:58:47 70° ENE 18:03:27 10° N
BREEZE-M R/B 3.8 17:57:51 10° W 18:01:50 68° S 18:05:18 30° ESE
ATLAS 2AS CENTAUR R/B 3.1 17:54:28 10° NW 18:02:00 53° NNE 18:05:16 32° E
Cosmos 968 Rocket 3.9 17:58:08 10° NNW 18:03:19 63° WSW 18:08:25 10° S
Cosmos 1340 4.2 18:00:10 10° NNW 18:03:41 37° W 18:07:11 10° SSW
SJ 16-02 3.5 18:03:03 10° N 18:04:08 13° NNE 18:04:08 13° NNE
COSMO-SKYMED 1 3.2 18:02:28 10° N 18:06:45 58° WNW 18:11:01 10° SSW
HJ-1C 3.5 18:07:27 62° NNE 18:07:27 62° NNE 18:10:24 10° N
MOS 1 Rocket 3.3 18:02:58 10° NNE 18:07:32 55° E 18:12:22 10° S
Cosmos 2297 Rocket 3.3 18:02:23 10° NW 18:07:44 44° WSW 18:13:03 10° S
Cosmos 1076 Rocket 3.3 18:04:36 10° N 18:08:53 82° E 18:11:35 22° SSE
COSMOS 2455 4.5 18:05:32 10° NW 18:09:54 20° NNE 18:12:00 17° NE
Cosmos 1980 Rocket 3.7 18:05:23 10° SSE 18:07:19 19° SSE 18:07:19 19° SSE
Cosmos 1777 Rocket 4.3 18:05:26 10° NNW 18:10:25 42° NE 18:10:51 41° ENE
Cosmos 883 Rocket 4.5 18:06:17 10° SSE 18:12:13 53° E 18:18:09 10° NNE
Aureole 3 Rocket 4.1 18:08:46 10° SSW 18:12:54 55° WNW 18:18:40 10° N
Cosmos 2315 Rocket 4.1 18:10:24 10° SSE 18:16:17 47° E 18:22:10 10° NNE
CSL-04 Debris 4.2 18:10:53 10° SSE 18:16:20 82° WSW 18:21:51 10° NNW
S3M 3.8 18:10:39 10° S 18:16:46 84° E 18:22:59 10° N
Cosmos 2227 4.4 18:15:45 10° NNW 18:21:12 47° NE 18:21:43 45° ENE
Resurs 01 Rocket 4.0 18:24:28 11° NNE 18:24:28 11° NNE 18:24:41 10° NNE
MetOp-A 4.5 18:22:01 44° ENE 18:22:01 44° ENE 18:26:57 10° N
Lacrosse 5 2.3 18:17:39 10° WNW 18:22:35 49° N 18:23:30 44° NE
FALCON 9 DEB 3.6 18:19:15 10° WNW 18:22:07 59° W 18:22:07 59° W
YAOGAN 1 3.5 18:19:58 10° S 18:24:09 47° W 18:28:21 10° NNW
FALCON 9 DEB 4.1 18:21:17 10° WSW 18:23:30 40° WSW 18:23:30 40° WSW
ERBS 3.7 18:21:39 10° WNW 18:24:02 31° NNW 18:24:02 31° NNW
Cosmos 2360 4.3 18:20:40 10° S 18:26:11 52° ESE 18:26:15 52° ESE
FALCON 9 DEB 4.4 18:25:30 10° WSW 18:27:30 35° WSW 18:27:30 35° WSW
Cosmos 1812 Rocket 3.8 18:27:10 10° S 18:35:44 11° NNE 18:35:59 10° NNE
Cosmos 1455 3.0 18:28:35 10° SSW 18:31:13 42° SSW 18:31:13 42° SSW
CZ-2C R/B 4.1 18:28:42 10° S 18:34:19 50° W 18:39:48 10° NNW
Meteor 2-3 Rocket 3.8 18:29:17 10° N 18:34:44 54° ENE 18:34:44 54° ENE
USA 307 3.8 18:36:45 10° WNW 18:40:48 41° SW 18:40:52 41° SSW
USA 308 3.9 18:41:37 10° WNW 18:45:31 38° SW 18:45:31 38° SW
Meteor 2-10 Rocket 4.0 18:40:44 10° SSW 18:45:55 57° WNW 18:50:59 10° N
Cosmos 2278 Rocket 4.4 18:50:49 10° N 18:53:21 13° NNE 18:53:39 13° NNE
ATLAS 5 CENTAUR R/B 3.6 18:50:47 10° NW 18:54:39 23° N 18:55:01 23° NNE
Cosmos 2151 4.1 18:53:18 10° NNW 18:56:04 38° NNW 18:56:04 38° NNW
Cosmos 1992 Rocket 4.3 18:52:55 10° SW 18:58:06 65° WNW 18:59:48 41° N
ARGOS 3.7 18:54:41 22° S 18:58:07 55° W 19:03:30 10° NNW
SL-08 RB Rocket 4.3 19:00:38 54° NW 19:00:38 54° NW 19:04:24 10° NNW
Cosmos 2369 3.6 18:57:21 10° SSW 19:03:05 84° WNW 19:03:11 83° NW
CZ-4 R/B 4.3 19:03:10 10° SW 19:05:26 15° W 19:07:43 10° NW
Geosat 4.2 19:06:43 66° NW 19:06:47 66° NW 19:11:46 10° SW
Cosmos 1844 Rocket 4.1 19:01:54 10° NNW 19:05:18 26° NNE 19:05:18 26° NNE
Ariane Rocket 3.3 19:07:50 61° NNW 19:07:50 61° NNW 19:12:05 10° NNW
H-2A R/B 3.5 19:02:05 10° SSW 19:07:05 37° W 19:12:08 10° NNW
Cosmos 2263 Rocket 2.4 19:12:23 10° NNW 19:17:16 66° NW 19:17:16 66° NW
SeaSat 1 3.8 19:26:15 32° WSW 19:26:38 33° WSW 19:31:05 10° NW
CZ-4C R/B 2.8 19:23:06 10° NW 19:29:36 71° NNE 19:29:36 71° NNE
NOSS 3-4 (A) 4.0 19:24:14 10° NW 19:31:04 63° SW 19:31:39 61° SSW
NOSS 3-4 (C) 4.0 19:24:20 10° NW 19:31:10 64° SW 19:31:43 62° SSW
Cosmos 1697 Rocket 3.4 19:25:47 10° SW 19:31:15 50° NW 19:31:25 50° NW
Cosmos 2184 Rocket 4.4 19:26:07 10° N 19:31:04 58° NNW 19:31:04 58° NNW
USA 215 3.4 19:39:00 68° WSW 19:39:00 68° WSW 19:44:59 10° WNW
NOSS 3-3 (A) 4.4 19:36:40 10° WSW 19:41:47 58° WNW 19:41:47 58° WNW
NOSS 3-3 (C) 4.4 19:36:46 10° WSW 19:41:54 58° WNW 19:41:54 58° WNW
SJ 16-02 4.0 19:40:26 10° NNW 19:41:07 14° NNW 19:41:07 14° NNW
ATLAS 2AS CENTAUR R/B 3.2 19:45:50 10° NW 19:52:43 58° WSW 19:52:43 58° WSW
Cosmos 1980 Rocket 4.4 19:48:18 10° SW 19:49:11 15° SW 19:49:11 15° SW
COSMOS 2455 4.4 19:51:52 10° NNW 19:55:08 28° N 19:55:08 28° N
Lacrosse 5 4.0 20:00:49 10° WNW 20:02:41 23° WNW 20:02:41 23° WNW
